RADARSAT-2

Last updated on Mon Sep 21 2026 00:02:45 GMT+0000 (Coordinated Universal Time)

1 32382U 07061A 26263.05827800 .00000154 00000+0 76710-4 0 9995 2 32382 98.5828 268.6515 0001254 80.7965 279.3359 14.29983566979512
UTC large
Height (km)
Speed (km/s)
/
Latitude / Longitude
Inclination (degrees)
Orbital Period (minutes)
Azimuth
Elevation
Range (km)
Doppler Factor

Next 0 passes for location: London (51.5072 / 0.1276)

No passes found over London.
RADARSAT-2